• en Suisse
  • Liste des pays
  • À 7 jours
  • Température de l'eau
  • Carte satellitaire
  • Carte météo
  • Widgets météo
  • user-avatar
    Se connecter

    Météo par heure à Serebryanka

    Ce jour, 19 Août, Dimanche

    Heure Température Précipitation Vent Pression Humidité
    00:00 +19°C° 0 mm 4 m/s 757 mmHg 53%
    01:00 +19°C° 0 mm 3 m/s 757 mmHg 55%
    02:00 +18°C° 0 mm 3 m/s 757 mmHg 58%
    03:00 +17°C° 0 mm 3 m/s 757 mmHg 62%
    04:00 +17°C° 0 mm 3 m/s 757 mmHg 63%
    05:00 +17°C° 0 mm 3 m/s 757 mmHg 65%
    06:00 +16°C° 0 mm 3 m/s 757 mmHg 66%
    07:00 +19°C° 0 mm 3 m/s 758 mmHg 57%
    08:00 +21°C° 0 mm 4 m/s 758 mmHg 49%
    09:00 +23°C° 0 mm 4 m/s 758 mmHg 39%
    10:00 +25°C° 0 mm 4 m/s 758 mmHg 36%
    11:00 +27°C° 0 mm 4 m/s 758 mmHg 33%
    12:00 +28°C° 0 mm 4 m/s 758 mmHg 30%
    13:00 +28°C° 0 mm 4 m/s 758 mmHg 28%
    14:00 +29°C° 0 mm 4 m/s 757 mmHg 26%
    15:00 +28°C° 0 mm 4 m/s 757 mmHg 27%
    16:00 +28°C° 0 mm 3 m/s 757 mmHg 27%
    17:00 +28°C° 0 mm 3 m/s 757 mmHg 28%
    18:00 +27°C° 0 mm 3 m/s 757 mmHg 29%
    19:00 +25°C° 0 mm 3 m/s 757 mmHg 32%
    20:00 +23°C° 0 mm 2 m/s 757 mmHg 35%
    21:00 +20°C° 0 mm 2 m/s 757 mmHg 39%
    22:00 +20°C° 0 mm 2 m/s 757 mmHg 40%
    23:00 +19°C° 0 mm 2 m/s 757 mmHg 41%

    Demain, 20 Août, Lundi

    Heure Température Précipitation Vent Pression Humidité
    00:00 +18°C° 0 mm 2 m/s 757 mmHg 42%
    01:00 +18°C° 0 mm 2 m/s 757 mmHg 43%
    02:00 +17°C° 0 mm 2 m/s 757 mmHg 44%
    03:00 +17°C° 0 mm 2 m/s 757 mmHg 45%
    04:00 +16°C° 0 mm 1 m/s 757 mmHg 46%
    05:00 +16°C° 0 mm 1 m/s 757 mmHg 47%
    06:00 +16°C° 0 mm 1 m/s 757 mmHg 48%
    07:00 +19°C° 0 mm 1 m/s 757 mmHg 43%
    08:00 +21°C° 0 mm 2 m/s 758 mmHg 38%
    09:00 +24°C° 0 mm 2 m/s 758 mmHg 33%
    10:00 +26°C° 0 mm 2 m/s 758 mmHg 30%
    11:00 +27°C° 0 mm 2 m/s 757 mmHg 27%
    12:00 +28°C° 0 mm 2 m/s 757 mmHg 25%
    13:00 +29°C° 0 mm 2 m/s 757 mmHg 24%
    14:00 +30°C° 0 mm 2 m/s 756 mmHg 23%
    15:00 +30°C° 0 mm 2 m/s 756 mmHg 21%
    16:00 +30°C° 0 mm 2 m/s 756 mmHg 22%
    17:00 +30°C° 0 mm 2 m/s 755 mmHg 23%
    18:00 +29°C° 0 mm 2 m/s 755 mmHg 24%
    19:00 +27°C° 0 mm 2 m/s 755 mmHg 27%
    20:00 +25°C° 0 mm 2 m/s 755 mmHg 30%
    21:00 +23°C° 0 mm 1 m/s 755 mmHg 33%
    22:00 +22°C° 0 mm 1 m/s 755 mmHg 34%
    23:00 +21°C° 0 mm 1 m/s 755 mmHg 35%

    Après-demain, 21 Août, Mardi

    Heure Température Précipitation Vent Pression Humidité
    00:00 +21°C° 0 mm 1 m/s 755 mmHg 37%
    01:00 +20°C° 0 mm 1 m/s 755 mmHg 38%
    02:00 +20°C° 0 mm 1 m/s 755 mmHg 40%
    03:00 +19°C° 0 mm 1 m/s 755 mmHg 41%
    04:00 +19°C° 0 mm 1 m/s 755 mmHg 42%
    05:00 +19°C° 0 mm 1 m/s 755 mmHg 43%
    06:00 +19°C° 0 mm 1 m/s 755 mmHg 45%
    07:00 +21°C° 0 mm 1 m/s 755 mmHg 40%
    08:00 +24°C° 0 mm 2 m/s 755 mmHg 35%
    09:00 +26°C° 0 mm 2 m/s 755 mmHg 30%
    10:00 +28°C° 0 mm 2 m/s 755 mmHg 27%
    11:00 +29°C° 0 mm 2 m/s 755 mmHg 24%
    12:00 +31°C° 0 mm 2 m/s 754 mmHg 21%
    13:00 +31°C° 0 mm 2 m/s 754 mmHg 20%
    14:00 +32°C° 0 mm 2 m/s 754 mmHg 19%
    15:00 +32°C° 0 mm 2 m/s 753 mmHg 18%
    16:00 +32°C° 0 mm 2 m/s 753 mmHg 19%
    17:00 +32°C° 0 mm 1 m/s 752 mmHg 20%
    18:00 +32°C° 0 mm 1 m/s 752 mmHg 21%
    19:00 +29°C° 0 mm 1 m/s 752 mmHg 24%
    20:00 +27°C° 0 mm 1 m/s 752 mmHg 27%
    21:00 +24°C° 0 mm 1 m/s 753 mmHg 29%
    22:00 +24°C° 0 mm 1 m/s 752 mmHg 30%
    23:00 +23°C° 0 mm 1 m/s 752 mmHg 32%

    22 Août, Mercredi

    Heure Température Précipitation Vent Pression Humidité
    00:00 +22°C° 0 mm 1 m/s 752 mmHg 33%
    01:00 +22°C° 0 mm 1 m/s 752 mmHg 33%
    02:00 +22°C° 0 mm 1 m/s 752 mmHg 34%
    03:00 +20°C° 0 mm 2 m/s 752 mmHg 34%
    04:00 +20°C° 0 mm 2 m/s 752 mmHg 38%
    05:00 +20°C° 0 mm 2 m/s 752 mmHg 41%
    06:00 +19°C° 0 mm 2 m/s 753 mmHg 45%
    07:00 +21°C° 0 mm 2 m/s 753 mmHg 47%
    08:00 +24°C° 0 mm 3 m/s 753 mmHg 49%
    09:00 +26°C° 0 mm 4 m/s 753 mmHg 52%
    10:00 +27°C° 0 mm 4 m/s 753 mmHg 49%
    11:00 +28°C° 0 mm 4 m/s 754 mmHg 47%
    12:00 +29°C° 0 mm 5 m/s 754 mmHg 45%
    13:00 +29°C° 0,1 mm 5 m/s 754 mmHg 42%
    14:00 +29°C° 0,1 mm 5 m/s 754 mmHg 40%
    15:00 +29°C° 0,1 mm 5 m/s 754 mmHg 38%
    16:00 +29°C° 0 mm 5 m/s 754 mmHg 37%
    17:00 +28°C° 0 mm 5 m/s 754 mmHg 37%
    18:00 +27°C° 0 mm 6 m/s 755 mmHg 36%
    19:00 +26°C° 0 mm 5 m/s 755 mmHg 39%
    20:00 +23°C° 0 mm 5 m/s 756 mmHg 42%
    21:00 +21°C° 0 mm 5 m/s 756 mmHg 45%
    22:00 +20°C° 0 mm 4 m/s 757 mmHg 47%
    23:00 +19°C° 0 mm 4 m/s 757 mmHg 49%

    23 Août, Jeudi

    Heure Température Précipitation Vent Pression Humidité
    00:00 +18°C° 0 mm 4 m/s 757 mmHg 51%
    01:00 +17°C° 0 mm 4 m/s 758 mmHg 53%
    02:00 +15°C° 0 mm 4 m/s 758 mmHg 55%
    03:00 +15°C° 0 mm 4 m/s 758 mmHg 57%
    04:00 +14°C° 0 mm 3 m/s 758 mmHg 59%
    05:00 +14°C° 0 mm 3 m/s 758 mmHg 60%
    06:00 +13°C° 0 mm 3 m/s 759 mmHg 62%
    07:00 +15°C° 0 mm 4 m/s 759 mmHg 56%
    08:00 +18°C° 0 mm 4 m/s 759 mmHg 50%
    09:00 +21°C° 0 mm 4 m/s 759 mmHg 43%
    10:00 +22°C° 0 mm 4 m/s 759 mmHg 38%
    11:00 +23°C° 0 mm 4 m/s 759 mmHg 33%
    12:00 +26°C° 0 mm 4 m/s 759 mmHg 29%
    13:00 +26°C° 0 mm 4 m/s 759 mmHg 27%
    14:00 +27°C° 0 mm 4 m/s 758 mmHg 25%
    15:00 +28°C° 0 mm 4 m/s 758 mmHg 24%
    16:00 +27°C° 0 mm 4 m/s 758 mmHg 25%
    17:00 +27°C° 0 mm 4 m/s 758 mmHg 26%
    18:00 +26°C° 0 mm 4 m/s 758 mmHg 27%
    19:00 +23°C° 0 mm 4 m/s 758 mmHg 32%
    20:00 +21°C° 0 mm 4 m/s 758 mmHg 36%
    21:00 +19°C° 0 mm 3 m/s 758 mmHg 40%
    22:00 +18°C° 0 mm 3 m/s 758 mmHg 42%
    23:00 +18°C° 0 mm 4 m/s 759 mmHg 45%

    24 Août, Vendredi

    Heure Température Précipitation Vent Pression Humidité
    00:00 +17°C° 0 mm 4 m/s 759 mmHg 47%
    01:00 +17°C° 0 mm 4 m/s 759 mmHg 49%
    02:00 +15°C° 0 mm 4 m/s 759 mmHg 50%
    03:00 +15°C° 0 mm 4 m/s 758 mmHg 52%
    04:00 +14°C° 0 mm 4 m/s 759 mmHg 53%
    05:00 +14°C° 0 mm 4 m/s 759 mmHg 55%
    06:00 +13°C° 0 mm 3 m/s 759 mmHg 56%
    07:00 +17°C° 0 mm 4 m/s 759 mmHg 50%
    08:00 +19°C° 0 mm 4 m/s 759 mmHg 44%
    09:00 +21°C° 0 mm 5 m/s 759 mmHg 38%
    10:00 +23°C° 0 mm 5 m/s 758 mmHg 34%
    11:00 +26°C° 0 mm 5 m/s 758 mmHg 30%
    12:00 +28°C° 0 mm 5 m/s 758 mmHg 26%
    13:00 +28°C° 0 mm 5 m/s 757 mmHg 25%
    14:00 +29°C° 0 mm 5 m/s 757 mmHg 24%
    15:00 +30°C° 0 mm 5 m/s 757 mmHg 23%
    16:00 +29°C° 0 mm 5 m/s 756 mmHg 24%
    17:00 +29°C° 0 mm 5 m/s 756 mmHg 25%
    18:00 +28°C° 0 mm 4 m/s 756 mmHg 26%
    19:00 +26°C° 0 mm 4 m/s 756 mmHg 29%
    20:00 +23°C° 0 mm 4 m/s 756 mmHg 33%
    21:00 +20°C° 0 mm 4 m/s 757 mmHg 36%
    22:00 +20°C° 0 mm 4 m/s 757 mmHg 38%
    23:00 +19°C° 0 mm 4 m/s 756 mmHg 39%
    Voir plus